STARLINK-35392, 65823

Orbit data source: Space-Track

STARLINK-35392, 65823 is a payload satellite owned by SpaceX/Seattle (US) in LEO that was launched on Mon, 29 Sep 2025 UTC via an FALCON 9 launch vehicle from the Air Force Western Test Range (AFWTR). Payload-class satellites include a variety of spacecraft equipped with specific instruments for various scientific and technological missions. These include communications satellites like Starlink; space stations such as the ISS; scientific satellites like the Hubble; Earth observation satellites from companies like Planet Labs, Umbra, and HawkEye 360; GPS; miniature CubeSats for education and research; and military/defense satellites.

Loading next visibility...
Identifier
65823, 2025-221A
Orbit
LEO
Country
Flag of USUS
Related business
Manufacturer
SpaceX/Seattle
Mission
Operational spacecraft
Bus & Motor
STARLINK V2MO, Unknown motor
Mass
575 kg wet, ~530 kg dry
Launch date (UTC)
2025-09-29 (3 weeks ago)
Launch vehicle
FALCON 9
Launch site
Air Force Western Test Range (AFWTR)
Object type
Payload
Rocket body
Debris
Shape & HBR
Unknown shape, 17.7 m
Radar Cross Section
RCS unknown

Expand to show TLE details & history
Last TLE update: 19 hours ago

TLE from 19 hours ago
0 STARLINK-35392
1 65823U 25221A   25290.33336806 -.01688738  00000-0 -24060-1 0  9992
2 65823  53.1596  37.1072 0001046  69.8617 316.4046 15.58677017  4132
Epoch: 2025-10-17T08:00Z
TLE epoch observation values (Epoch: 2025-10-17T08:00:03.000Z)
Latitude
20.78361°
Longitude
-92.56067°
Altitude
391.513 km
Speed
7.679 km/s
True Right ascension
03h 34m 07s
True Declination
20° 39' 49"
Sunlit
Object was in full shadow at epoch
Visualization orbit readout
Latitude
Unknown
Longitude
Unknown
Altitude
Unknown
Speed
Unknown
Apparent Right ascension
Unknown
Apparent Declination
Unknown
Sunlit
N/A
Visualization observer readout
Local Sidereal Time
21:24:06
Azimuth
Unknown
Elevation
Unknown
Doppler factor
Unknown
Orbital elements
Apogee altitude
392.453 km
Perigee altitude
391.036 km
Semi-major axis
6,769.882 km
Eccentricity
0.0001
Inclination
53.1596°
RAAN
37.1072°
Arg. of periapsis
69.8617°
True anomaly
316.39633°
Mean anomaly
316.4046°
Eccentric anomaly
316.40047°
Mean motion
3.89647 °/min
Orbital period
92.39 mins
BSTAR
-0.02406
Loading maneuver chart data...
Computing Atmospheric mass density...
Loading historical data...
Loading historical data...
Loading historical data...
Loading historical data...
Loading historical data...
Loading historical data...
Loading historical data...

Documentation

Showing up to 5 results
|